This is the latest recevied weather packets stored in our database for station/object M0SDM-10. If no packets are shown the sender has not sent any weather packets the latest 10 day(s).
| Time | Temp. | Humidity | Pressure | Rain* | Wind** | Luminosity | Snow |
|---|---|---|---|---|---|---|---|
| 1788403958 | 17.78° C | 82% | 1002.5 hPa | - | - | - | - |
| 1788402157 | 17.78° C | 83% | 1002.5 hPa | - | - | - | - |
| 1788400357 | 17.78° C | 83% | 1002.2 hPa | - | - | - | - |
| 1788398557 | 17.78° C | 84% | 1002.4 hPa | - | - | - | - |
| 1788396756 | 17.78° C | 84% | 1002.9 hPa | - | - | - | - |
| 1788394956 | 17.78° C | 84% | 1003 hPa | - | - | - | - |
| 1788393156 | 17.78° C | 84% | 1003 hPa | - | - | - | - |
| 1788391355 | 17.78° C | 82% | 1002.9 hPa | - | - | - | - |
| 1788389555 | 17.78° C | 82% | 1003.4 hPa | - | - | - | - |
| 1788387755 | 17.78° C | 84% | 1003.4 hPa | - | - | - | - |
| 1788385955 | 17.78° C | 85% | 1003.3 hPa | - | - | - | - |
| 1788384155 | 17.78° C | 85% | 1003 hPa | - | - | - | - |
| 1788382355 | 17.78° C | 84% | 1003 hPa | - | - | - | - |
| 1788380555 | 17.78° C | 85% | 1002.8 hPa | - | - | - | - |
| 1788378755 | 17.78° C | 86% | 1002.8 hPa | - | - | - | - |
| 1788376954 | 17.78° C | 86% | 1002.7 hPa | - | - | - | - |
| 1788375154 | 17.78° C | 86% | 1002.8 hPa | - | - | - | - |
| 1788373352 | 17.78° C | 87% | 1002.7 hPa | - | - | - | - |
| 1788371552 | 17.78° C | 86% | 1003 hPa | - | - | - | - |
| 1788369752 | 17.78° C | 85% | 1003 hPa | - | - | - | - |
| 1788367952 | 17.78° C | 82% | 1003.3 hPa | - | - | - | - |
| 1788366151 | 17.78° C | 82% | 1003.5 hPa | - | - | - | - |
| 1788362551 | 17.78° C | 78% | 1004 hPa | - | - | - | - |
| 1788360751 | 17.78° C | 78% | 1004.3 hPa | - | - | - | - |
| 1788358951 | 17.78° C | 77% | 1004.7 hPa | - | - | - | - |
* Rain since midnight (hover to see other rain measurements)
** Current wind speed in m/s (hover to see current wind gust speed)